www.pogodaiklimat.ru

Погода и климат >> Архив погоды >> Индия >> Nagpur


ПОГОДА в Nagpur

  • Прогноз погоды в Nagpur
  • Монитор погоды в Nagpur
  • Климат города

АРХИВ ПОГОДЫ в Nagpur

Время (UTC), дата Ветер
(напр.,м/с)
 
Видим.   Явления Облачность Т
(С)
Тd
(С)
f
(%)
Тe
(С)
Тes
(С)
Комфортность P
(гПа)
Po
(гПа)
Тmin
(С)
Tmax
(С)
R
(мм)
R24
(мм)
S
(см)
09 14.10 В 1 4000 м мгла 6/4 600 м
[Cu Sc Ac trans]
+33.2 +24.4 60 +46 +52 опасность
перегрева
1002.3 1002.0
12 14.10 СВ 1 4000 м мгла 4/1 600 м
[Sc Ac trans]
+30.0 +24.6 73 +43 +43 опасность
перегрева
1002.5 1003.0 +34.2
15 14.10 штиль 0 2000 м мгла 5/0
[Ac trans Ci fib]
+26.0 +23.7 87 +35 +35 очень
душно
1005.4 1005.0
18 14.10 штиль 0 2000 м мгла 3/0 600 м
[Ac trans Ci fib]
+24.8 +23.0 90 +33 +33 очень
душно
1005.6 1006.0
21 14.10 СЗ 1 2000 м мгла 3/0 600 м
[Ac trans Ci fib]
+24.4 +23.2 93 +33 +33 очень
душно
1004.3 1004.0
00 15.10 штиль 0 2000 м мгла 5/0
[Ac trans Ci fib]
+23.8 +23.2 96 +32 +32 очень
душно
1005.6 1006.0
03 15.10 СВ 1 2000 м мгла 6/0
[Ac trans]
+28.6 +23.7 75 +39 +43 очень
душно
1007.9 1008.0 +23.6
06 15.10 В 1 2000 м мгла 6/0
[Ac trans]
+34.0 +23.7 55 +45 +57 опасность
перегрева
1006.7 1007.0
09 15.10 штиль 0 4000 м мгла 5/4 600 м
[Sc Ac trans]
+33.6 +25.8 64 +49 +57 опасность
перегрева
1004.0 1004.0
12 15.10 штиль 0 4000 м мгла 3/0
[Ci fib]
+29.6 +25.4 78 +43 +44 опасность
перегрева
1003.6 1004.0 +34.8
15 15.10 штиль 0 2000 м мгла 4/0
[Ac trans]
+24.8 +22.4 87 +32 +32 очень
душно
1007.0 1007.0
18 15.10 штиль 0 2000 м мгла 4/0
[Ac trans]
+23.2 +22.6 96 +32 +32 очень
душно
1007.4 1007.0
21 15.10 штиль 0 2000 м мгла 4/0
[Ac trans]
+22.8 +21.9 95 +31 +31 очень
душно
1006.9 1007.0
00 16.10 штиль 0 2000 м мгла 4/0
[Ac trans]
+21.6 +21.3 98 +28 +28 очень
душно
1007.8 1008.0
03 16.10 штиль 0 4000 м мгла ясно +26.6 +22.5 78 +35 +41 очень
душно
1008.9 1009.0 +21.2
06 16.10 С 2 4000 м мгла ясно +33.8 +21.1 48 +41 +57 опасность
перегрева
1006.8 1007.0
09 16.10 С 4 4000 м мгла 4/3 600 м
[Sc Ac trans]
+35.0 +22.2 48 +44 +48 опасность
перегрева
1003.2 1003.0
12 16.10 штиль 0 4000 м мгла 3/0
[Ac trans]
+29.0 +21.9 66 +37 +38 очень
душно
1005.2 1005.0 +36.4
15 16.10 штиль 0 2000 м мгла 3/0
[Ac trans]
+24.4 +21.4 83 +31 +31 очень
душно
1007.2 1007.0
18 16.10 З 1 2000 м мгла 3/0
[Ac trans]
+22.4 +20.2 87 +29 +29 очень
душно
1007.3 1007.0
21 16.10 С 1 2000 м мгла 3/0
[Ac trans]
+21.0 +18.5 86 +27 +27 душно 1006.6 1007.0
00 17.10 СВ 1 2000 м мгла ясно +20.4 +18.2 87 +25 +25 комфорт 1006.8 1007.0
03 17.10 штиль 0 2000 м мгла ясно +26.6 +18.5 61 +31 +37 душно 1008.3 1008.0 +19.6
06 17.10 СВ 2 4000 м мгла ясно +33.0 +18.6 43 +38 +54 опасность
солнечного
удара
1006.8 1007.0
09 17.10 СВ 1 4000 м мгла ясно +36.0 +17.1 33 +39 +51 опасность
солнечного
удара
1003.5 1004.0
12 17.10 штиль 0 4000 м мгла ясно +28.0 +21.1 66 +35 +36 очень
душно
1004.4 1004.0 +36.6
15 17.10 штиль 0 4000 м мгла 1/0
[Ac trans]
+22.6 +20.1 86 +29 +29 очень
душно
1007.0 1007.0
18 17.10 штиль 0 2000 м мгла 1/0
[Ac trans]
+21.0 +18.8 87 +25 +25 комфорт 1007.3 1007.0
21 17.10 С 1 2000 м мгла 1/0
[Ac trans]
+21.0 +17.8 82 +26 +26 душно 1006.3 1006.0
00 18.10 С 2 2000 м мгла 1/0
[Ac trans]
+21.6 +14.8 65 +25 +25 комфорт 1005.6 1006.0
03 18.10 штиль 0 4000 м мгла ясно +26.4 +19.2 65 +32 +38 очень
душно
1007.6 1008.0 +19.2
06 18.10 В 2 4000 м мгла ясно +31.8 +17.0 41 +35 +52 опасность
солнечного
удара
1006.7 1007.0
09 18.10 В 1 4000 м мгла ясно +33.0 +14.9 34 +35 +47 душно 1004.2 1004.0
12 18.10 СВ 2 4000 м мгла ясно +26.6 +18.1 60 +31 +31 душно 1004.9 1005.0 +33.6
15 18.10 штиль 0 2000 м мгла ясно +21.4 +18.5 84 +26 +26 душно 1007.1 1007.0
18 18.10 С 2 2000 м мгла ясно +20.0 +18.4 91 +24 +24 комфорт 1007.0 1007.0
21 18.10 штиль 0 2000 м мгла ясно +19.4 +17.1 87 +21 +21 комфорт 1006.0 1006.0
00 19.10 С 2 2000 м мгла 3/0
[Ci fib]
+20.0 +17.4 85 +24 +24 комфорт 1006.2 1006.0
03 19.10 С 3 2000 м мгла 6/0
[Cs]
+25.6 +18.7 66 +31 +34 очень
душно
1007.4 1007.0 +18.7
06 19.10 В 2 2000 м мгла 5/0
[Ci fib]
+30.8 +22.0 59 +39 +54 опасность
солнечного
удара
1006.1 1006.0
09 19.10 В 1 4000 м мгла 5/0
[Ci fib]
+33.4 +21.3 49 +41 +52 опасность
перегрева
1002.6 1003.0
12 19.10 штиль 0 2000 м мгла 8/5 600 м
[Sc diur, vesp Ac trans]
+30.6 +22.7 63 +40 +40 очень
душно
1003.4 1003.0 +33.6
15 19.10 штиль 0 2000 м мгла 8/3 600 м
[Sc Ac trans]
+26.0 +22.4 81 +34 +34 очень
душно
1005.8 1006.0
18 19.10 штиль 0 1000 м мгла 8/3 600 м
[Sc Ac trans]
+26.4 +23.8 86 +36 +36 очень
душно
1005.8 1006.0
21 19.10 штиль 0 1000 м мгла 8/3 600 м
[Sc Ac trans]
+26.0 +22.4 81 +34 +34 очень
душно
1004.4 1004.0
00 20.10 штиль 0 2000 м мгла 8/3 600 м
[Sc Ac trans]
+26.0 +22.4 81 +34 +34 очень
душно
1004.6 1005.0
03 20.10 штиль 0 2000 м мгла ясно +28.6 +23.4 73 +39 +44 очень
душно
1006.3 1006.0 +24.9
06 20.10 Ю 1 4000 м мгла 5/5 600 м
[Cu Sc]
+33.0 +24.5 61 +46 +54 опасность
перегрева
1005.3 1005.0
09 20.10 С 1 2000 м мгла 8/8 600 м
[Cb cap]
+34.0 +24.0 56 +46 +48 опасность
перегрева
1002.1 1002.0
12 20.10 штиль 0 4000 м мгла 8/5 600 м
[Sc diur, vesp Ac trans Ci fib]
+31.4 +25.2 70 +45 +46 опасность
перегрева
1003.1 1003.0 +34.7
15 20.10 С 1 2000 м гроза без осадков {дождь} 9/4 600 м
[Cb cap Ac trans]
+24.4 +23.5 95 +33 +33 очень
душно
1006.9 1007.0 9
18 20.10 З 1 2000 м мгла {гроза} 4/1 600 м
[Sc Ac trans]
+24.6 +23.7 95 +33 +33 очень
душно
1007.0 1007.0 9
21 20.10 С 1 2000 м мгла 4/0
[Ac trans]
+24.8 +23.6 93 +34 +34 очень
душно
1005.5 1006.0 9
00 21.10 штиль 0 2000 м мгла ясно +24.0 +23.4 96 +32 +32 очень
душно
1006.1 1006.0
03 21.10 штиль 0 4000 м мгла ясно +28.8 +24.2 76 +40 +46 очень
душно
1007.8 1008.0 +23.3 9
06 21.10 СВ 2 4000 м мгла 1/1 750 м
[Cu hum]
+32.6 +24.3 62 +45 +58 опасность
перегрева
1006.2 1006.0

 

Местоположение метеостанции Nagpur (Maharashtra, Индия): широта 21.10 долгота 79.05 высота над уровнем моря 310 м.

В архиве по умолчанию представлена погода в Nagpur за последнюю неделю. Архивные данные за месяц целиком и за предыдущие месяцы, начиная с января 2011 года, Вы можете получить, выбрав интересующий диапазон дат из раскрывающегося списка и нажав кнопку "Ввод!".

Внимание! Время в таблицах - всемирное. Для получения местного времени необходимо прибавить поправку, которая в Nagpur равна 5.5 ч.

Смотрите также архив погоды в соседних городах и на ближайших метеорологических станциях:

Погода в Wardha (Maharashtra, Индия) (68 км)
Погода в Bramhapuri (Maharashtra, Индия) (100 км)
Погода в Chhindwara (Madhya Pradesh, Индия) (111 км)
Погода в Seoni (Madhya Pradesh, Индия) (121 км)
Погода в Yeotmal (Maharashtra, Индия) (122 км)
Погода в Gondia (Maharashtra, Индия) (126 км)
Погода в Chandrapur (Maharashtra, Индия) (128 км)
Погода в Amraoti (Maharashtra, Индия) (133 км)
Погода в Betul (Madhya Pradesh, Индия) (144 км)
Погода в Pachmarhi (Madhya Pradesh, Индия) (165 км)

Пояснения к столбцам:

Ветер - указаны скорость ветра в м/с - средняя за 10 мин, порывы в срок и между сроками (в фигурных скобках) и направление, откуда дует ветер: С - северный, СВ - северо-восточный, В - восточный, ЮВ - юго-восточный, Ю - южный, ЮЗ - юго-западный, З - западный, СЗ - северо-западный.
Видимость - горизонтальная дальность видимости в метрах или километрах. При видимости от 1 до 10 км при отсутствии осадков обычно наблюдается дымка, при ухудшении видимости до 1 км и менее - туман. В сухую погоду видимость может ухудшаться дымом, пылью или мглою.
Явления - указаны атмосферные явления, наблюдавшиеся в срок или в последний час перед сроком; фигурными скобками обозначены явления, наблюдавшиеся между сроками (за 1-3 часа до срока); квадратными скобками обозначены град или гололедные отложения с указанием их диаметра в мм.
Облачность - указаны через наклонную черту общая и нижняя облачность в баллах и высота нижней границы облаков в метрах; квадратными скобками обозначены формы облаков: Ci - перистые, Cs - перисто-слоистые, Cc - перисто-кучевые, Ac - высококучевые, As - высокослоистые, Sc - слоисто-кучевые, Ns - слоисто-дождевые, Cu - кучевые, Cb - кучево-дождевые. Подробнее классификацию облаков см. в Атласе облаков (PDF).
T - Температура воздуха - температура, измеренная на высоте 2 м над землей.
Td - Температура точки росы - температура, при понижении до которой содержащийся в воздухе водяной пар достигнет насыщения.
f - Относительная влажность воздуха - влажноcть воздуха, измеренная на высоте 2 м над землей.
Te - Эффективная температура - температура, которую ощущает одетый по сезону человек в тени. Характеристика душности погоды. При расчете учитывается влияние влажности воздуха и скорости ветра на теплоощущения человека.
Tes - Эффективная температура на солнце - температура, которую ощущает человек, с поправкой на солнечный нагрев. Характеристика знойности погоды. Зависит от высоты солнца над горизонтом, облачности и скорости ветра. Ночью, в пасмурную погоду, а также при ветре 12 м/с и более поправка равна нулю.
P - Атмосферное давление - приведенное к уровню моря атмосферное давление.
Po - Атмосферное давление - измеренное на уровне метеостанции атмосферное давление.
Tmin - Минимальная температура - минимум температуры воздуха на высоте 2 м над землей.
Tmax - Максимальная температура - максимум температуры воздуха на высоте 2 м над землей.
R - Количество осадков - Количество выпавших осадков за период времени, мм. При наведении курсора мыши на число - период времени, за который выпало указанное количество осадков.
R24 - Количество осадков - Количество выпавших осадков за 24 часа, мм.
S - Снежный покров - Высота снежного покрова, см. При наведении курсора мыши на число - состояние снежного покрова и степень покрытия местности в баллах.